Location: Grantham
(50.0698°N, 112.0083°W)
Time: 02:22:17
(UTC+00:00)

ISS - Pass Details

Date: 04 December 2021
Orbit: 413 x 422 km, 51.6° (Epoch: 24 January)

Event Time Altitude Azimuth Distance (km) Brightness Sun altitude
Rises 01:21:29 0° 287° (WNW) 2,386 1.1 -17.4°
Reaches altitude 10° 01:23:36 10° 284° (WNW) 1,517 0.0 -17.7°
Maximum altitude 01:26:57 59° 205° (SSW) 494 -3.3 -18.2°
Enters shadow 01:28:01 37° 143° (SE) 670 -3.0 -18.4°
